Theta_e
308 308 309 309 309 310 309 309 311 312 311 312 310 311 313 313 312 315 315 315 316 315 314 315 314 313 313 316 318 320 324 327 328 326 324 320 324 328 328 330 330 331 332 334 339
307 308 309 309 308 309 310 309 310 311 309 309 310 309 311 313 314 314 313 313 312 313 316 315 315 315 316 318 319 323 327 326 324 322 321 319 321 325 329 330 331 333 334 337 339
307 306 306 309 308 307 309 310 310 311 311 308 309 309 311 313 315 313 313 317 314 315 315 314 313 314 317 321 320 323 326 324 320 319 317 317 319 322 328 331 330 331 335 338 338
304 306 306 306 307 308 307 308 308 308 310 308 308 310 311 313 314 314 313 314 316 318 316 315 314 315 318 323 321 322 324 324 318 315 314 317 318 319 323 329 328 330 334 337 338
302 303 303 304 306 307 306 308 307 308 307 307 308 309 312 313 313 313 312 312 313 314 314 313 313 314 318 320 319 322 321 322 322 316 314 315 317 318 319 321 326 328 334 337 337
301 302 301 302 303 305 307 307 306 306 307 306 307 309 311 313 311 311 312 312 312 313 314 310 311 312 312 315 316 319 321 322 321 318 315 315 316 317 317 317 318 324 331 335 336
301 301 300 301 302 303 305 306 306 306 307 307 308 309 311 311 310 311 312 312 312 312 314 313 310 309 310 311 311 311 312 316 322 323 321 314 316 317 317 316 316 316 320 329 333
299 300 299 300 301 302 303 303 306 306 306 306 307 308 310 309 310 310 311 312 312 313 314 314 313 310 310 311 310 311 312 317 317 319 315 313 317 317 317 317 316 317 317 317 324
300 300 300 299 300 301 301 302 303 304 307 306 307 307 307 308 309 309 310 310 312 313 314 314 314 313 310 311 310 311 314 316 317 316 317 314 316 316 315 314 316 316 317 317 320
300 300 300 299 301 301 301 303 304 303 306 306 306 307 306 307 308 309 308 309 310 311 316 316 314 315 313 309 308 308 310 311 314 314 311 314 314 315 311 311 312 313 314 315 316
300 300 300 300 301 301 302 302 304 304 306 307 307 306 308 306 308 309 309 309 309 311 314 315 315 315 312 311 309 308 308 310 310 309 308 311 312 313 313 312 312 312 311 311 313
300 301 300 300 300 301 302 302 302 304 305 305 306 306 308 306 307 309 309 310 311 312 311 316 316 312 311 311 310 309 307 309 310 308 308 309 310 310 310 311 312 313 313 312 311
300 300 300 300 299 300 301 301 302 303 305 305 305 306 307 308 309 309 310 309 310 311 311 313 313 313 311 312 312 310 308 306 307 309 309 308 308 308 309 309 309 310 310 311 312
301 300 300 300 298 299 300 300 301 301 304 304 306 306 306 307 308 308 309 309 310 310 310 311 311 312 313 313 310 310 309 308 308 307 305 307 306 309 309 309 308 309 310 310 310
300 300 300 299 300 300 300 300 301 300 304 306 305 305 306 307 307 307 309 309 310 309 310 310 311 312 313 313 311 310 308 309 308 307 307 306 307 307 308 307 307 308 308 308 308
301 300 300 299 299 299 300 301 301 302 302 305 303 306 307 307 306 307 308 309 308 309 309 309 310 312 312 311 311 310 309 308 308 308 310 306 306 306 307 306 307 306 307 306 307
300 300 300 299 299 299 300 300 302 302 301 304 306 306 306 307 306 307 308 309 310 311 312 310 311 311 311 313 312 311 310 312 311 314 310 306 306 306 307 306 307 308 308 309 308
300 300 299 299 299 300 298 300 302 301 302 303 305 306 308 305 306 306 307 309 308 308 309 311 311 312 310 311 312 312 310 311 311 312 309 307 306 306 308 308 308 307 308 306 304
300 300 299 299 299 298 299 302 301 302 302 304 305 306 307 305 305 306 306 307 307 307 309 310 309 308 310 310 311 312 313 309 310 307 311 309 308 307 309 309 308 309 307 305 303
300 299 299 299 298 296 299 302 302 300 302 304 304 305 305 306 305 305 305 305 306 307 307 308 309 308 309 310 310 311 310 312 312 312 311 307 308 308 311 310 309 309 306 303 301
298 299 297 297 297 298 303 302 300 299 301 303 304 303 304 305 304 305 305 304 304 304 307 308 310 308 309 311 311 311 313 313 310 311 310 311 308 309 310 311 310 307 305 303 300
298 299 296 297 300 299 301 299 299 299 299 300 301 302 305 304 305 305 305 305 303 305 306 306 308 308 309 307 310 309 311 313 313 314 311 311 310 307 310 310 308 304 304 300 298
298 297 296 297 301 301 298 299 299 300 299 300 301 301 302 305 304 304 304 300 300 303 305 306 308 307 307 307 309 311 311 311 313 312 314 314 308 308 308 308 307 305 301 298 296
300 299 297 297 297 299 299 299 301 297 298 299 300 301 302 302 302 303 303 301 302 302 304 305 306 306 305 306 308 311 310 312 315 317 314 313 309 308 308 308 306 304 301 298 296
299 297 296 299 299 299 298 298 300 300 297 297 300 302 303 302 301 303 303 300 301 302 302 306 306 306 306 306 306 308 307 308 315 313 316 314 313 309 307 308 306 303 300 297 295
298 298 296 297 297 299 298 297 299 298 298 297 300 296 297 301 299 301 301 301 301 302 301 302 304 303 303 305 306 307 307 307 307 307 313 313 312 310 306 306 304 301 298 297 295
293 294 298 297 298 299 299 298 297 297 295 296 297 297 297 297 298 298 298 299 301 302 301 302 304 303 302 303 304 304 303 305 305 307 309 311 310 307 304 304 302 301 299 298 295
Wind_Speed
19 15 17 19 18 16 15 14 11 10 7 7 8 7 6 8 9 8 11 8 6 16 11 8 10 10 5 11 5 3 5 10 15 9 8 1 4 2 4 2 6 6 5 6 21
16 15 13 12 12 19 15 15 14 11 10 7 6 7 6 5 9 17 15 14 15 13 8 5 7 5 4 9 4 10 10 14 9 7 7 9 6 7 5 9 8 8 6 15 21
15 14 15 9 11 12 18 14 14 12 11 9 7 5 5 4 9 3 1 8 13 16 11 7 5 7 11 13 11 8 15 15 9 8 10 10 10 5 8 11 10 12 12 15 18
16 11 9 14 10 11 12 16 13 14 11 9 6 4 4 5 4 4 5 9 4 10 12 10 7 7 10 18 15 12 13 16 8 7 7 12 12 10 10 8 8 2 17 15 17
11 12 13 12 12 11 10 11 12 13 13 10 5 5 4 7 9 5 2 6 2 6 9 8 10 9 14 12 14 15 18 14 17 9 10 14 14 16 13 10 2 1 10 14 14
9 13 14 15 13 11 9 8 11 12 11 11 7 5 8 11 2 4 6 4 3 1 3 6 4 6 7 15 13 4 13 19 15 13 7 12 17 6 11 11 9 6 9 12 14
8 10 11 14 13 13 9 9 8 11 10 9 7 5 10 11 1 1 2 0 1 3 3 3 2 5 4 6 12 10 9 12 18 18 13 8 20 19 18 10 8 11 10 10 13
7 9 9 9 9 12 10 9 8 9 10 9 6 7 6 8 15 10 4 1 1 2 2 2 1 3 5 3 3 11 13 16 13 16 7 11 17 14 18 15 15 15 11 13 12
10 10 8 8 9 10 9 8 7 8 8 7 6 8 9 3 10 14 13 9 3 1 3 0 4 4 6 5 4 9 14 19 17 11 13 16 12 18 6 6 14 15 15 13 11
13 10 10 7 6 7 4 4 4 4 5 2 8 5 8 10 7 6 13 11 9 6 5 7 6 7 9 10 10 10 16 18 15 13 13 17 16 14 2 6 13 12 11 13 15
9 9 11 9 7 7 5 3 4 4 11 6 5 8 2 11 6 6 8 13 11 8 10 13 9 12 15 15 15 6 9 12 11 4 5 18 18 18 16 11 10 8 10 13 13
9 9 9 8 6 5 5 5 5 3 7 13 13 14 3 11 8 8 10 10 12 14 13 7 16 15 10 12 13 13 11 11 11 3 6 13 15 16 17 16 18 17 16 13 11
12 8 6 7 3 5 8 7 4 6 2 8 20 16 11 8 7 15 12 13 14 16 17 17 2 16 13 12 14 15 16 12 5 4 9 11 18 20 18 18 17 16 17 16 14
12 9 6 10 3 7 9 7 4 5 3 9 11 8 16 8 8 9 16 9 10 17 17 15 20 8 16 15 14 16 13 14 13 6 7 4 8 12 15 14 13 15 15 15 13
13 10 10 10 4 6 4 6 10 4 5 14 9 5 13 15 9 15 13 11 13 11 14 12 11 16 15 15 15 13 12 10 12 11 11 17 8 12 10 11 12 9 4 4 5
11 8 14 8 8 5 4 7 11 4 7 6 2 11 14 19 10 6 10 11 8 14 16 20 4 13 18 11 11 4 7 7 8 9 11 18 14 11 13 12 7 5 4 3 4
10 10 15 7 3 10 7 8 4 7 2 6 4 10 17 10 16 11 11 15 10 10 14 15 16 6 5 12 12 13 13 5 6 6 9 2 13 17 5 3 1 3 2 5 6
11 16 11 6 7 10 6 2 4 6 5 1 5 9 7 12 13 16 11 15 20 14 7 13 10 18 13 13 7 17 17 6 7 8 10 6 9 5 2 5 3 3 4 5 6
18 12 8 7 9 9 3 8 4 5 5 8 9 7 5 8 8 15 12 13 16 18 8 7 20 8 14 15 14 14 18 15 5 2 3 7 9 3 6 5 5 4 4 5 6
17 11 6 7 11 7 2 7 3 2 2 12 6 6 10 11 9 14 12 5 15 16 14 6 6 11 16 15 18 16 12 12 7 6 9 10 13 9 9 11 8 7 5 5 6
16 4 2 7 8 2 4 1 2 1 1 3 4 4 5 8 10 13 8 5 9 12 15 8 2 5 12 15 17 14 11 9 10 10 8 11 11 6 9 10 10 6 5 6 7
7 3 4 11 2 2 2 2 1 2 2 2 3 4 6 12 5 7 9 2 3 4 10 16 3 8 10 7 16 19 20 17 7 10 11 7 5 1 5 3 7 8 8 8 7
4 3 3 2 3 3 1 1 3 4 1 2 3 2 5 6 4 6 4 2 4 7 5 9 4 6 4 6 4 10 14 18 17 13 11 11 7 5 7 7 8 10 9 8 8
4 4 2 0 1 1 2 2 2 6 4 4 3 3 7 4 4 5 6 3 1 1 5 3 5 7 10 3 1 5 12 11 10 8 15 14 15 8 9 10 8 8 9 8 7
3 2 1 4 3 2 0 1 2 2 3 2 2 3 3 4 4 3 6 3 3 4 2 2 3 4 9 5 6 5 7 9 9 12 7 12 13 6 13 12 10 8 8 7 7
3 3 3 2 6 6 2 2 2 2 4 3 5 5 5 4 4 6 6 6 3 4 2 4 2 1 1 5 6 8 8 8 9 5 9 9 8 8 5 8 10 10 10 8 8
2 1 3 2 2 2 2 3 2 2 5 5 10 9 9 7 7 8 6 4 4 5 4 2 3 4 3 2 4 6 13 12 9 7 3 3 2 3 1 6 10 10 9 9 9
Wind_Direction
270 270 262 260 257 263 273 272 270 270 278 287 272 280 282 268 288 269 253 250 221 242 283 311 294 271 280 258 230 229 238 237 231 240 244 100 274 112 352 209 207 165 15 101 139
277 269 267 273 267 259 256 269 268 269 269 282 285 272 300 290 270 261 251 251 244 254 256 258 254 266 259 250 225 222 233 234 243 275 290 325 308 312 234 201 192 168 114 134 146
283 277 268 274 272 276 251 252 255 260 261 266 272 279 274 272 276 248 268 272 249 227 238 233 226 245 224 239 223 233 239 232 243 269 308 308 298 251 256 227 208 199 163 159 162
286 281 287 278 284 282 271 247 258 246 253 251 263 252 255 231 245 108 88 38 65 174 202 210 207 224 231 220 232 257 227 245 244 266 310 288 293 270 252 249 12 294 157 170 179
295 287 288 290 287 285 274 252 255 260 249 233 247 227 193 221 246 181 208 335 70 161 194 211 205 222 242 231 237 233 259 232 244 257 271 288 273 274 274 265 145 31 162 184 189
301 280 283 273 283 283 275 266 254 253 257 237 227 215 228 237 186 261 285 285 257 248 172 188 227 233 285 255 236 229 246 259 242 242 258 269 271 257 258 255 251 210 204 200 199
267 261 269 282 267 265 267 267 259 252 242 241 230 214 239 227 188 88 68 43 192 243 209 187 183 210 229 253 248 265 252 248 249 242 246 286 264 243 253 244 266 244 232 219 216
295 287 290 276 279 264 254 262 264 251 241 236 226 218 245 240 245 245 250 8 189 219 247 178 168 220 241 341 243 230 240 249 242 222 223 216 259 244 241 242 245 253 248 229 222
277 276 287 270 282 267 256 260 270 256 251 222 224 219 246 214 218 233 235 239 111 197 221 219 200 225 169 216 215 232 240 231 250 241 210 213 250 245 239 230 243 252 249 243 239
269 266 277 283 287 275 257 257 270 245 217 182 258 206 213 234 198 219 218 224 229 237 208 200 210 213 214 200 219 224 235 248 244 205 217 234 239 246 246 248 249 251 252 250 243
274 282 237 258 284 274 245 214 189 211 210 190 202 222 60 180 177 200 174 193 210 221 219 196 212 215 217 218 239 299 255 252 227 163 231 240 243 245 244 220 247 245 235 245 243
281 292 226 214 268 264 244 231 261 347 216 219 246 240 100 178 200 193 175 182 196 212 212 218 227 224 236 230 233 242 238 229 276 256 238 261 250 255 256 251 248 246 254 240 243
279 267 222 183 228 248 234 234 316 339 296 229 216 223 198 202 205 188 192 205 199 210 210 219 284 210 227 220 220 226 230 232 242 314 265 277 264 251 251 241 239 239 250 255 252
273 263 198 156 222 224 228 235 225 83 247 197 203 232 212 222 235 185 204 191 216 224 215 232 231 197 215 225 222 234 221 243 258 258 246 257 280 240 226 221 230 236 237 244 250
253 254 183 179 129 193 129 166 159 104 237 143 166 196 178 190 145 192 194 207 223 205 206 221 225 209 221 225 224 245 252 212 231 244 271 248 259 249 235 223 237 212 218 255 336
248 230 171 178 205 205 196 166 158 198 232 172 182 184 175 199 197 128 188 223 250 242 230 228 224 208 223 222 209 224 195 210 234 242 250 242 225 245 228 224 198 143 114 66 30
233 192 173 168 189 177 160 130 177 225 112 170 195 182 185 180 199 190 190 196 201 195 218 230 216 207 207 180 192 193 179 180 203 205 244 198 226 236 192 126 297 287 102 55 46
198 165 180 180 170 143 110 140 263 187 198 189 156 155 189 151 207 190 196 216 218 219 214 210 212 214 197 211 187 199 197 204 216 219 247 149 237 227 275 75 110 113 98 69 54
157 162 159 188 163 171 162 224 257 176 171 166 139 170 173 171 171 197 202 215 219 211 222 214 233 183 194 206 186 196 223 231 311 184 294 207 251 198 172 175 176 151 104 68 61
145 152 135 150 164 131 216 238 239 205 249 167 172 199 180 166 171 188 192 215 225 213 224 308 260 201 199 209 222 220 197 213 216 235 235 241 234 259 192 194 185 165 125 109 91
132 121 116 161 148 185 262 149 190 252 360 209 150 133 173 166 193 189 184 202 235 223 205 190 256 200 205 204 211 215 216 236 226 235 247 255 247 2 183 189 187 144 143 122 104
130 123 166 156 206 249 245 3 100 134 348 127 87 98 142 159 141 200 184 348 346 232 217 219 246 255 246 341 316 245 214 207 215 204 235 283 263 66 80 127 129 153 140 116 106
90 103 69 223 225 208 163 200 59 189 66 103 133 130 157 149 129 175 118 60 255 218 217 182 219 243 221 226 254 236 230 228 229 264 229 224 229 139 132 137 144 159 143 137 127
123 128 115 253 301 250 205 35 80 32 69 46 55 87 118 113 51 159 139 176 4 100 22 291 221 241 242 313 258 225 208 230 239 216 235 227 242 186 179 161 158 150 148 143 137
34 68 18 169 212 171 91 59 106 100 70 73 110 112 77 111 98 141 130 145 181 201 142 169 222 263 267 283 272 228 233 291 240 255 245 251 276 215 193 175 165 157 153 149 150
104 139 110 64 142 165 22 49 34 92 357 69 97 57 57 82 19 172 168 177 213 194 218 163 185 136 2 303 251 257 237 226 246 251 266 237 266 245 156 166 153 167 173 173 173
114 183 136 156 150 157 88 121 138 134 43 42 117 99 78 68 74 61 67 79 152 183 189 211 168 170 246 189 291 278 239 222 224 204 164 253 111 24 208 194 184 176 183 184 177